P/2011 A2 ( Scotti )

Japanese version
Home page
Updated on September 3, 2011

---------------------------------------------------------------------

* Profile

Discovery Date January 11, 2011
Magnitude 20.2 mag
Discoverer J. V. Scotti (Spaewatch, Kitt Peak)

* Pictures

* Orbital Elements

Epoch 2010 Dec. 30.0 TT = JDT 2455560.5
T 2010 Dec. 22.50380 TT                                 MPC
q   1.5587795            (2000.0)            P               Q
n   0.17979541     Peri.   94.58817     -0.85750739     -0.51051484
a   3.1089733      Node    54.72696     +0.43566715     -0.78641148
e   0.4986192      Incl.    4.47392     +0.27363336     -0.34775219
P   5.48
From 219 observations 2011 Jan. 11-May 12, mean residual 0".6.

* Magnitudes Graph

        m1 = 15.5 + 5 log d + 10.0 log r

---------------------------------------------------------------------

The orbital elements are published on M.P.E.C. 2011-L51.
The magnitudes graphs are made with Comet for Windows.

---------------------------------------------------------------------

Copyright(C) Seiichi Yoshida (comet@aerith.net). All rights reserved.